Flag for USA

Past Weather in Mobile, Alabama, USA — Yesterday and Last 2 Weeks

Now
90 °F

Sunny.


Feels Like: 99 °F
Forecast: 92 / 75 °F
Wind: 7 mph from Southeast

Location: Mobile Downtown Airport

Current Time: Jul 3, 2020 at 3:41:16 pm

Latest Report: Jul 3, 2020 at 1:53 pm


Visibility: 10 mi

Pressure: 29.93 "Hg

Humidity: 59%

Dew Point: 74 °F

Location of MobileLocation

Past Weather in Mobile — Graph

°F

Mobile Temperature Yesterday

Maximum temperature yesterday: 87 °F (at 11:53 am)
Minimum temperature yesterday: 75 °F (at 3:53 am)
Average temperature yesterday: 80 °F

High & Low Weather Summary for the Past Weeks

 TemperatureHumidityPressure
High96 °F (Jul 1, 1:53 pm)97% (Jun 19, 5:53 am)30.20 "Hg (Jun 19, 5:53 am)
Low71 °F (Jun 20, 4:53 am)45% (Jun 18, 1:53 pm)29.90 "Hg (Jul 2, 1:53 am)
Average82 °F79%30.03 "Hg
* Reported Jun 18 1:53 pm — Jul 3 1:53 pm, Mobile. Weather by CustomWeather, © 2020

Note: Actual official high and low records may vary slightly from our data, if they occured in-between our weather recording intervals... More about our weather records

Mobile Weather History for the Previous 24 Hours

Scroll right to see more
 ConditionsComfort  
Time TempWeatherWind HumidityBarometerVisibility
1:53 pm
Fri, Jul 3
90 °FSunny.7 mph59%29.93 "Hg10 mi
12:53 pm88 °FSunny.7 mph61%29.95 "Hg10 mi
11:53 am86 °FBroken clouds.7 mph67%29.98 "Hg10 mi
10:53 am85 °FBroken clouds.3 mph65%29.99 "Hg10 mi
9:53 am83 °FPassing clouds.3 mph70%29.99 "Hg10 mi
8:53 am81 °FSunny.3 mph74%29.98 "Hg10 mi
7:53 am79 °FPassing clouds.5 mph82%29.96 "Hg10 mi
6:53 am76 °FScattered clouds.6 mph88%29.95 "Hg10 mi
5:53 am74 °FClear.5 mph94%29.95 "Hg10 mi
4:53 am75 °FClear.5 mph90%29.95 "Hg10 mi
3:53 am76 °FClear.5 mph91%29.95 "Hg10 mi
3:17 am76 °FPassing clouds.3 mph91%29.96 "Hg10 mi
2:53 am76 °FPassing clouds.3 mph94%29.96 "Hg10 mi
1:53 am75 °FClear.3 mph94%29.96 "Hg10 mi
12:53 am76 °FClear.3 mph91%29.97 "Hg10 mi
11:53 pm
Thu, Jul 2
77 °FClear.5 mph88%29.96 "Hg10 mi
10:53 pm77 °FClear.No wind90%29.96 "Hg10 mi
9:53 pm78 °FClear.5 mph87%29.97 "Hg10 mi
8:53 pm79 °FClear.No wind84%29.94 "Hg10 mi
7:53 pm80 °FSunny.5 mph81%29.93 "Hg10 mi
6:53 pm82 °FSunny.5 mph79%29.94 "Hg10 mi
5:53 pm83 °FSunny.5 mph74%29.93 "Hg10 mi
4:53 pm83 °FSunny.6 mph70%29.95 "Hg10 mi
4:21 pm83 °FThundershowers. Sunny.7 mph74%29.97 "Hg10 mi
4:01 pm82 °FThunderstorms. Scattered clouds.No wind77%29.96 "Hg10 mi
3:26 pm83 °FThunderstorms. Mostly cloudy.7 mph88%29.98 "Hg7 mi
3:12 pm85 °FThundershowers. Mostly cloudy.6 mph80%29.97 "Hg7 mi
Weather by CustomWeather, © 2020

See weather overview